TAPIOLA Weather Reports


Display with metric or nautical units.
time (UTC)temp
F
wind
direction
speed
MPH
gust
MPH
rain 1hr
in
rain 24hr
in
rain mn
in
humidity
%
barometer
mb
20260906042123 50 331 13.0 20.0 0.00 0.04 0.00 87 1004.3
20260906040453 50 323 11.0 19.0 0.00 0.04 0.00 88 1004.1
20260906034453 50 319 10.0 16.0 0.00 0.04 0.00 91 1003.8
20260906032453 49 305 10.0 15.0 0.00 0.04 0.00 92 1003.6
20260906030454 49 310 9.0 15.0 0.00 0.04 0.00 92 1003.4
20260906024454 48 314 9.0 14.0 0.00 0.04 0.00 93 1003.1
20260906022454 49 309 9.0 13.0 0.00 0.04 0.00 92 1002.9
20260906020453 49 304 9.0 13.0 0.00 0.04 0.00 92 1002.7
20260906014454 50 312 9.0 13.0 0.00 0.04 0.00 91 1002.4
20260906012453 49 315 10.0 15.0 0.00 0.04 0.00 92 1002.3
20260906010454 49 313 9.0 15.0 0.00 0.04 0.00 93 1002.1
20260906004455 49 310 9.0 15.0 0.00 0.04 0.00 92 1001.9
20260906002453 49 310 8.0 13.0 0.00 0.04 0.00 92 1001.7
20260906000455 50 313 9.0 14.0 0.00 0.04 0.00 92 1001.5
20260905234122 51 323 9.0 14.0 0.00 0.04 0.00 90 1001.2
20260905232452 51 323 9.0 16.0 0.00 0.04 0.00 90 1001.1
20260905230121 51 330 8.0 13.0 0.00 0.04 0.00 90 1000.8
20260905224452 52 324 9.0 13.0 0.00 0.04 0.00 90 1000.8
20260905222452 52 327 8.0 15.0 0.00 0.04 0.00 89 1000.6
20260905220121 53 331 9.0 14.0 0.00 0.04 0.00 89 1000.3
20260905214452 53 327 8.0 15.0 0.00 0.04 0.00 90 1000.2
20260905204452 55 321 9.0 13.0 0.00 0.04 0.04 86 999.6
20260905202121 55 323 9.0 13.0 0.00 0.04 0.04 85 999.4
20260905194452 56 309 9.0 14.0 0.00 0.04 0.04 81 999.1
20260905192452 57 306 9.0 13.0 0.00 0.04 0.04 79 999.0
20260905190452 58 309 7.0 11.0 0.00 0.04 0.04 76 998.9
20260905184453 58 317 8.0 13.0 0.00 0.04 0.04 75 998.7
20260905182121 56 307 7.0 12.0 0.00 0.04 0.04 83 998.6
20260905180450 55 299 6.0 9.0 0.00 0.04 0.04 90 998.5
20260905174120 55 284 4.0 6.0 0.00 0.04 0.04 88 998.3
20260905172450 55 289 5.0 8.0 0.00 0.04 0.04 88 998.2
20260905170451 56 303 6.0 9.0 0.00 0.04 0.04 88 998.0
20260905164452 56 302 6.0 9.0 0.00 0.04 0.04 87 997.8
20260905162122 58 308 6.0 8.0 0.00 0.04 0.04 81 997.5
20260905160451 60 315 4.0 6.0 0.00 0.04 0.04 72 997.3
20260905154451 60 338 4.0 9.0 0.00 0.04 0.04 76 997.1
20260905152453 60 345 6.0 9.0 0.00 0.04 0.04 72 997.1
20260905150450 61 329 6.0 9.0 0.00 0.04 0.04 65 996.9
20260905144451 61 314 5.0 11.0 0.00 0.04 0.04 71 996.7
20260905142451 62 283 5.0 13.0 0.00 0.04 0.04 66 996.7
20260905140452 60 169 5.0 7.0 0.00 0.04 0.04 85 996.4
20260905134450 59 131 5.0 6.0 0.00 0.09 0.04 86 996.3
20260905132450 63 31 6.0 12.0 0.00 0.09 0.04 66 996.2
20260905130454 61 175 4.0 7.0 0.00 0.09 0.04 76 996.1
20260905122450 59 124 3.0 4.0 0.04 0.09 0.04 95 996.0
20260905114450 57 9 4.0 8.0 0.00 0.06 0.00 88 995.9
20260905112452 64 200 4.0 11.0 0.00 0.06 0.00 60 995.4
20260905104450 62 275 4.0 9.0 0.00 0.06 0.00 52 995.2
20260905102450 62 296 4.0 6.0 0.00 0.06 0.00 57 995.2
20260905100450 60 337 2.0 6.0 0.00 0.06 0.00 73 995.1
20260905094449 61 316 5.0 8.0 0.00 0.06 0.00 68 995.0
20260905090450 61 274 5.0 9.0 0.00 0.06 0.00 73 994.8
20260905082452 59 324 6.0 9.0 0.00 0.06 0.00 75 994.6
20260905080119 59 314 5.0 7.0 0.00 0.06 0.00 78 994.5
20260905074449 58 289 5.0 8.0 0.00 0.06 0.00 78 994.5
20260905072448 58 275 4.0 6.0 0.00 0.06 0.00 81 994.4
20260905064449 53 314 2.0 3.0 0.00 0.06 0.00 99 994.2
20260905062448 52 341 3.0 4.0 0.00 0.06 0.00 100 994.1
20260905060449 50 346 2.0 4.0 0.00 0.06 0.00 100 994.1
20260905054450 49 12 2.0 4.0 0.00 0.06 0.00 100 994.1
20260905052448 48 359 3.0 4.0 0.00 0.06 0.00 100 994.1
20260905050449 47 344 4.0 5.0 0.00 0.06 0.00 100 994.1
20260905044450 46 338 4.0 4.0 0.00 0.06 0.00 100 994.2